This is the latest recevied weather packets stored in our database for station/object IK6IHU-3. If no packets are shown the sender has not sent any weather packets the latest 10 day(s).
| Time | Temp. | Humidity | Pressure | Rain* | Wind** | Luminosity | Snow |
|---|---|---|---|---|---|---|---|
| 1777482670 | 18.33° C | 66% | 1014.1 hPa | 0 mm | - | 0 W/m² | - |
| 1777482610 | 18.33° C | 66% | 1014.1 hPa | 0 mm | - | 0 W/m² | - |
| 1777482550 | 18.33° C | 66% | 1013.9 hPa | 0 mm | - | 0 W/m² | - |
| 1777482489 | 18.33° C | 66% | 1014 hPa | 0 mm | - | 0 W/m² | - |
| 1777482430 | 18.33° C | 66% | 1014.1 hPa | 0 mm | - | 0 W/m² | - |
| 1777482370 | 18.89° C | 66% | 1013.9 hPa | 0 mm | - | 0 W/m² | - |
| 1777482310 | 18.33° C | 66% | 1013.8 hPa | 0 mm | - | 0 W/m² | - |
| 1777482250 | 18.33° C | 66% | 1014 hPa | 0 mm | - | 0 W/m² | - |
| 1777482190 | 18.33° C | 67% | 1014 hPa | 0 mm | - | 0 W/m² | - |
| 1777481949 | 18.89° C | 66% | 1013.9 hPa | 0 mm | - | 0 W/m² | - |
| 1777481890 | 18.89° C | 65% | 1013.6 hPa | 0 mm | - | 0 W/m² | - |
| 1777481830 | 18.89° C | 65% | 1013.9 hPa | 0 mm | - | 0 W/m² | - |
| 1777481770 | 19.44° C | 63% | 1013.9 hPa | 0 mm | - | 0 W/m² | - |
| 1777481710 | 19.44° C | 63% | 1013.9 hPa | 0 mm | - | 0 W/m² | - |
| 1777481650 | 19.44° C | 62% | 1013.9 hPa | 0 mm | - | 0 W/m² | - |
| 1777481590 | 20° C | 61% | 1013.9 hPa | 0 mm | - | 0 W/m² | - |
| 1777481530 | 20° C | 55% | 1013.8 hPa | 0 mm | - | 0 W/m² | - |
| 1777481470 | 19.44° C | 52% | 1014 hPa | 0 mm | - | 0 W/m² | - |
| 1777481410 | 19.44° C | 52% | 1014 hPa | 0 mm | - | 0 W/m² | - |
| 1777481349 | 20° C | 52% | 1013.7 hPa | 0 mm | - | 0 W/m² | - |
| 1777481290 | 19.44° C | 53% | 1013.8 hPa | 0 mm | - | 0 W/m² | - |
| 1777481230 | 19.44° C | 53% | 1013.9 hPa | 0 mm | - | 0 W/m² | - |
| 1777481170 | 19.44° C | 54% | 1013.9 hPa | 0 mm | - | 0 W/m² | - |
| 1777481110 | 19.44° C | 54% | 1013.9 hPa | 0 mm | - | 0 W/m² | - |
| 1777481050 | 19.44° C | 55% | 1013.8 hPa | 0 mm | - | 0 W/m² | - |
* Rain latest hour (hover to see other rain measurements)
** Current wind speed in m/s (hover to see current wind gust speed)